Location: Fisheating Creek Campgrounds
(26.9333°N, 81.3167°W)
Time: 16:08:27
(UTC-04:00)

Cosmos 2221 Rocket - Visible Passes

Search period start: 23 July 2014 00:00
Search period end: 02 August 2014 00:00
Orbit: 621 x 651 km, 82.5° (Epoch: 22 July)

Date Brightness Start Highest point End Pass type
(mag) Time Alt. Az. Time Alt. Az. Time Alt. Az.
24 Jul 6.4 06:09:20 10° SE 06:12:37 21° E 06:15:53 10° NE visible
27 Jul 6.4 05:39:41 10° SE 05:42:30 17° E 05:45:18 10° NE visible
28 Jul 5.0 06:00:51 10° SSE 06:04:57 40° E 06:09:04 10° NNE visible
30 Jul 6.5 05:10:14 10° ESE 05:12:23 13° E 05:14:31 10° ENE visible
31 Jul 5.4 05:30:54 10° SSE 05:34:49 32° E 05:38:43 10° NNE visible
01 Aug 3.6 05:52:58 10° S 05:57:21 82° E 06:01:46 10° N visible
